Regional Weather Roundup
Issued by NWS

Home | Current Version | Previous Version | Text Only | Print | Product List | Glossary Off
Versions: 1 2 3 4 5 6 7 8 9 10 11 12 13 14 15 16 17 18 19 20 21 22 23 24 25 26 27 28 29 30 31 32 33 34 35 36 37 38 39 40 41 42 43 44 45 46 47 48 49 50

490
ASUS43 KLMK 231110
RWRKY
KENTUCKY REGIONAL WEATHER ROUNDUP
NATIONAL WEATHER SERVICE LOUISVILLE KY
700 AM EDT MON OCT 23 2017

NOTE "FAIR" INDICATES FEW OR NO CLOUDS BELOW 12,000 FEET
WITH NO SIGNIFICANT WEATHER AND/OR OBSTRUCTIONS TO VISIBILITY.

KYZ001>023-026-027-061>063-070>075-231200-
WESTERN AND SOUTH CENTRAL KENTUCKY

CITY           SKY/WX    TMP DP  RH WIND       PRES   REMARKS
PADUCAH        CLOUDY    53  50  89 W13       29.86F
HENDERSON      NOT AVBL
OWENSBORO      RAIN      58  57  97 NE9       29.77F
HOPKINSVILLE     N/A    N/A N/A N/A W10       29.83S
BOWLING GREEN  RAIN      63  63 100 NE3       29.82F FOG
GLASGOW        HVY RAIN  61  61 100 NW3       29.85R
$$

KYZ024-025-028>034-038-045-046-053-231200-
NORTH CENTRAL KENTUCKY

CITY           SKY/WX    TMP DP  RH WIND       PRES   REMARKS
LOUISVILLE/SDF LGT RAIN  65  62  90 SW14      29.85R
LOUISVILLE/LOU LGT RAIN  64  62  93 SE8       29.83F
FORT KNOX      RAIN      63  63  99 S3        29.82F
$$

KYZ035>037-039>044-047>052-055>060-089>105-231200-
NORTHEAST KENTUCKY

CITY           SKY/WX    TMP DP  RH WIND       PRES   REMARKS
LEXINGTON      LGT RAIN  65  57  75 SE9       29.89F
COVINGTON      CLOUDY    64  56  75 SE12      29.87F
FRANKFORT      LGT RAIN  63  57  81 E6        29.86F
$$

KYZ054-064>069-076>088-106>120-231200-
SOUTHEAST KENTUCKY

CITY           SKY/WX    TMP DP  RH WIND       PRES   REMARKS
JACKSON        CLOUDY    65  55  70 VRB5      29.93F
LONDON         LGT RAIN  66  58  75 E3        29.89F
SOMERSET       LGT RAIN  61  57  88 CALM      29.87F
MIDDLESBORO    MOCLDY    68  60  74 SE5       29.92F
MONTICELLO     CLOUDY    64  59  83 SE6       29.86F
$$





USA.gov is the U.S. government's official web portal to all federal, state and local government web resources and services.